EST,Max TemperatureF,Mean TemperatureF,Min TemperatureF,Max Dew PointF,MeanDew PointF,Min DewpointF,Max Humidity, Mean Humidity, Min Humidity, Max Sea Level PressureIn, Mean Sea Level PressureIn, Min Sea Level PressureIn, Max VisibilityMiles, Mean VisibilityMiles, Min VisibilityMiles, Max Wind SpeedMPH, Mean Wind SpeedMPH, Max Gust SpeedMPH,PrecipitationIn, CloudCover, Events, WindDirDegrees
2012-11-1,53,48,44,48,44,43,94,85,67,29.52,29.48,29.45,10,10,4,7,3,,0.00,6,,199
2012-11-2,53,48,42,43,41,37,100,82,58,29.53,29.48,29.45,10,9,3,9,2,,0.00,5,,322
2012-11-3,50,42,35,39,35,32,100,76,58,29.66,29.59,29.52,10,10,10,14,4,17,0.00,6,,307
2012-11-4,48,42,35,37,31,25,81,64,50,29.89,29.77,29.66,10,10,10,20,9,24,0.00,5,,313
2012-11-5,35,30,24,25,19,12,75,57,44,30.04,29.96,29.89,10,10,10,13,7,18,0.00,7,,332
2012-11-6,37,30,23,19,16,10,80,57,33,30.23,30.14,30.03,10,10,10,12,5,16,0.00,0,,283
2012-11-7,35,28,21,25,17,14,93,61,44,30.24,30.10,29.94,10,10,2,17,8,29,0.00,2,,21
2012-11-8,37,34,30,36,33,28,100,93,87,29.92,29.77,29.71,10,6,1,24,17,31,0.67,8,,5
2012-11-9,48,40,33,34,29,23,100,68,46,29.99,29.84,29.71,10,10,10,20,14,26,0.00,3,,320
2012-11-10,46,36,26,28,21,14,93,55,27,30.43,30.21,29.97,10,10,10,14,6,21,0.00,0,,307
2012-11-11,44,34,24,37,29,18,93,76,61,30.47,30.42,30.36,10,10,0,6,1,,0.00,7,,23
2012-11-12,62,50,39,55,45,37,100,87,55,30.40,30.32,30.18,10,6,0,13,3,21,0.00,5,,192
2012-11-13,60,46,32,59,43,25,100,83,65,30.39,30.20,30.05,10,9,4,23,9,29,0.18,7,,301
2012-11-14,42,35,28,25,24,21,86,66,46,30.52,30.48,30.41,10,10,10,14,8,18,0.00,0,,356
2012-11-15,39,32,26,28,25,21,86,74,56,30.49,30.37,30.29,10,10,9,12,7,20,0.32,1,,13
2012-11-16,42,34,26,28,26,23,93,77,46,30.38,30.28,30.24,10,10,10,8,5,,0.00,0,,356
2012-11-17,42,33,24,28,23,18,100,70,39,30.61,30.51,30.38,10,10,9,9,3,,0.00,0,,1
2012-11-18,41,31,21,21,18,12,93,66,38,30.67,30.65,30.63,10,10,10,8,2,,0.00,0,,14
2012-11-19,44,32,19,28,23,16,93,74,42,30.62,30.44,30.25,10,9,2,6,1,,0.00,0,,161
2012-11-20,46,34,21,27,23,18,100,72,42,30.24,30.18,30.13,10,10,9,8,1,,0.00,0,,19
2012-11-21,37,32,26,36,30,23,100,86,69,30.26,30.24,30.18,10,7,0,10,6,,0.00,4,,14
2012-11-22,48,37,26,41,32,25,100,92,66,30.25,30.18,30.07,10,4,0,8,1,,0.00,5,,193
2012-11-23,53,44,35,45,39,34,100,89,54,30.05,29.85,29.59,10,6,0,12,5,20,0.00,6,,194
2012-11-24,46,37,28,43,32,16,100,78,48,29.58,29.45,29.40,10,9,3,15,5,22,0.01,7,,275
2012-11-25,30,27,24,21,12,9,74,51,40,29.71,29.57,29.42,10,10,10,22,12,31,0.00,3,,266
2012-11-26,39,30,21,19,14,9,74,54,38,30.19,29.92,29.71,10,10,10,15,8,23,0.00,0,,265
2012-11-27,32,24,17,19,16,12,93,72,51,30.29,30.25,30.19,10,10,10,7,2,,0.00,3,,348
2012-11-28,30,24,19,19,18,16,93,75,55,30.24,30.14,30.04,10,10,10,9,5,,0.00,6,,3
2012-11-29,35,26,17,27,15,10,100,60,38,30.15,30.05,29.98,10,10,7,20,6,26,0.00,3,,256
2012-11-30,26,19,12,16,2,-2,67,51,31,30.57,30.43,30.16,10,10,10,14,9,18,0.00,0,,344